GW4332 Weather Reports


Display with metric or nautical units.
time (UTC)temp
F
wind
direction
speed
MPH
gust
MPH
rain 1hr
in
rain 24hr
in
rain mn
in
humidity
%
barometer
mb
20260904034030 67 213 12.0 19.0 0.00 0.00 0.00 90 1010.7
20260904033030 67 210 11.0 19.0 0.00 0.00 0.00 91 1010.7
20260904032030 67 199 9.0 18.0 0.00 0.00 0.00 91 1010.7
20260904031029 67 213 9.0 17.0 0.00 0.00 0.00 91 1010.9
20260904030030 67 196 9.0 16.0 0.00 0.00 0.00 91 1011.1
20260904025030 67 195 8.0 17.0 0.00 0.00 0.00 91 1011.1
20260904024030 67 190 8.0 14.0 0.00 0.00 0.00 91 1011.2
20260904023030 68 205 8.0 15.0 0.00 0.00 0.00 91 1011.3
20260904022030 68 197 7.0 15.0 0.00 0.00 0.00 90 1011.4
20260904021030 68 202 9.0 15.0 0.00 0.00 0.00 90 1011.6
20260904020030 68 177 7.0 15.0 0.00 0.00 0.00 90 1011.8
20260904015030 68 204 10.0 17.0 0.00 0.00 0.00 90 1011.9
20260904014030 68 202 11.0 20.0 0.00 0.00 0.00 90 1011.9
20260904013030 68 211 11.0 18.0 0.00 0.00 0.00 90 1012.1
20260904012030 68 200 11.0 20.0 0.00 0.00 0.00 90 1012.2
20260904011030 68 210 13.0 22.0 0.00 0.00 0.00 90 1012.4
20260904010031 68 205 11.0 21.0 0.00 0.00 0.00 90 1012.5
20260904005030 68 207 12.0 19.0 0.00 0.00 0.00 90 1012.7
20260904004029 68 210 11.0 19.0 0.00 0.00 0.00 90 1012.7
20260904003030 68 197 11.0 19.0 0.00 0.00 0.00 90 1012.8
20260904002030 68 203 10.0 16.0 0.00 0.00 0.00 90 1012.8
20260904001030 68 202 11.0 18.0 0.00 0.00 0.00 90 1012.9
20260904000030 68 199 9.0 18.0 0.00 0.00 0.00 91 1012.9
20260903235029 68 201 9.0 17.0 0.00 0.00 0.00 91 1012.9
20260903234030 68 200 10.0 20.0 0.00 0.00 0.00 91 1013.1
20260903233030 68 207 9.0 18.0 0.00 0.00 0.00 91 1013.2
20260903232030 67 191 8.0 14.0 0.00 0.00 0.00 91 1013.4
20260903231029 67 194 9.0 17.0 0.00 0.00 0.00 91 1013.5
20260903230030 67 202 8.0 17.0 0.00 0.00 0.00 91 1013.6
20260903225030 67 204 9.0 18.0 0.00 0.00 0.00 91 1013.9
20260903224030 67 201 9.0 15.0 0.00 0.00 0.00 91 1013.9
20260903223030 67 188 7.0 15.0 0.00 0.00 0.00 91 1014.0
20260903222029 67 202 8.0 15.0 0.00 0.00 0.00 91 1014.3
20260903221030 67 200 7.0 15.0 0.00 0.00 0.00 91 1014.3
20260903220030 67 196 7.0 13.0 0.00 0.00 0.07 91 1014.6
20260903215029 67 208 7.0 14.0 0.00 0.00 0.07 91 1014.6
20260903214029 67 200 7.0 14.0 0.00 0.00 0.07 91 1014.7
20260903213030 67 200 6.0 13.0 0.00 0.00 0.07 90 1014.8
20260903212030 67 193 7.0 13.0 0.00 0.00 0.07 90 1014.8
20260903211030 67 210 9.0 17.0 0.00 0.00 0.06 90 1014.9
20260903210030 67 201 6.0 14.0 0.00 0.00 0.06 89 1015.0
20260903205030 67 187 6.0 11.0 0.00 0.00 0.06 89 1015.0
20260903204029 67 190 4.0 11.0 0.00 0.00 0.06 89 1015.2
20260903203030 67 185 6.0 11.0 0.00 0.00 0.06 88 1015.3
20260903202030 67 187 4.0 8.0 0.00 0.00 0.06 88 1015.2
20260903201030 67 195 4.0 10.0 0.00 0.00 0.06 88 1015.3
20260903200029 67 190 5.0 11.0 0.00 0.00 0.06 89 1015.3
20260903195030 67 217 5.0 11.0 0.00 0.00 0.06 89 1015.4
20260903194030 68 215 7.0 13.0 0.00 0.00 0.06 88 1015.6
20260903193030 68 230 9.0 15.0 0.00 0.00 0.06 88 1015.6
20260903192030 68 225 12.0 18.0 0.00 0.00 0.06 88 1015.7
20260903191029 68 232 11.0 16.0 0.00 0.00 0.06 88 1015.6
20260903190030 68 226 12.0 18.0 0.00 0.00 0.06 88 1015.8
20260903185030 68 226 11.0 15.0 0.00 0.00 0.06 87 1015.6
20260903184029 68 230 10.0 15.0 0.00 0.00 0.06 87 1015.7
20260903183030 68 235 12.0 16.0 0.00 0.00 0.06 86 1015.8
20260903182030 69 241 16.0 21.0 0.00 0.00 0.06 86 1015.8
20260903181030 68 225 13.0 19.0 0.00 0.00 0.06 86 1015.8
20260903180030 68 228 13.0 17.0 0.00 0.00 0.06 86 1015.7
20260903175030 68 239 13.0 17.0 0.00 0.00 0.06 85 1015.6
20260903174030 69 236 13.0 16.0 0.00 0.00 0.06 84 1015.9
20260903173030 69 239 12.0 16.0 0.00 0.00 0.06 84 1015.4
20260903172030 69 238 12.0 16.0 0.00 0.00 0.06 84 1015.2
20260903171030 69 234 13.0 16.0 0.00 0.00 0.06 84 1015.5
20260903170030 68 230 11.0 15.0 0.00 0.00 0.06 85 1015.4
20260903165030 68 240 12.0 15.0 0.00 0.00 0.06 85 1015.3
20260903164030 69 240 13.0 17.0 0.00 0.00 0.06 84 1015.5
20260903163029 69 246 15.0 20.0 0.00 0.00 0.06 83 1015.4
20260903162030 69 245 16.0 21.0 0.00 0.00 0.06 82 1015.6
20260903161030 69 246 16.0 21.0 0.00 0.00 0.06 82 1015.5
20260903160030 69 240 13.0 18.0 0.00 0.00 0.06 83 1015.5
20260903155030 69 236 13.0 20.0 0.00 0.00 0.06 83 1015.5
20260903154029 69 237 15.0 19.0 0.00 0.00 0.06 82 1015.6
20260903153030 69 237 16.0 22.0 0.00 0.00 0.06 81 1015.5
20260903152030 69 228 16.0 24.0 0.00 0.00 0.06 82 1015.6
20260903151030 69 229 18.0 24.0 0.00 0.00 0.06 82 1015.5
20260903150030 69 236 16.0 24.0 0.00 0.00 0.06 83 1015.4
20260903145030 69 243 17.0 26.0 0.00 0.00 0.06 82 1015.2
20260903144030 69 244 17.0 23.0 0.00 0.00 0.06 83 1015.3
20260903143030 69 257 19.0 25.0 0.00 0.00 0.06 85 1015.4
20260903142030 69 249 24.0 28.0 0.00 0.00 0.06 83 1015.3
20260903141030 68 249 17.0 25.0 0.00 0.00 0.06 84 1015.2
20260903140029 69 239 18.0 24.0 0.00 0.00 0.06 83 1015.4
20260903135030 69 247 16.0 23.0 0.00 0.00 0.06 83 1015.5
20260903134030 69 258 19.0 25.0 0.00 0.00 0.06 82 1015.3
20260903133030 69 254 24.0 32.0 0.00 0.00 0.06 81 1015.1
20260903132029 69 263 24.0 32.0 0.00 0.00 0.06 81 1015.1
20260903131030 69 251 24.0 30.0 0.00 0.00 0.06 82 1015.2
20260903130030 69 258 24.0 31.0 0.00 0.00 0.06 82 1015.1
20260903125030 69 252 24.0 31.0 0.00 0.00 0.06 84 1015.1
20260903124030 69 255 23.0 30.0 0.00 0.00 0.06 83 1014.8
20260903123030 68 251 19.0 25.0 0.00 0.00 0.06 84 1014.9
20260903122030 68 239 20.0 28.0 0.00 0.00 0.06 84 1014.9
20260903121030 68 238 19.0 26.0 0.00 0.00 0.06 84 1015.0
20260903120029 68 246 20.0 29.0 0.00 0.00 0.06 84 1014.8
20260903115030 68 253 22.0 27.0 0.00 0.00 0.06 85 1014.8
20260903114030 68 238 22.0 29.0 0.00 0.00 0.06 85 1014.6
20260903113030 68 247 22.0 31.0 0.00 0.00 0.06 85 1014.4
20260903112029 68 247 21.0 31.0 0.00 0.00 0.06 84 1014.4
20260903111030 68 254 23.0 31.0 0.00 0.00 0.06 84 1014.4
20260903110030 68 237 23.0 31.0 0.00 0.00 0.06 85 1014.4
20260903105030 68 256 24.0 34.0 0.00 0.00 0.06 85 1014.3
20260903104029 68 250 25.0 34.0 0.00 0.00 0.06 84 1014.0
20260903103030 68 240 19.0 26.0 0.00 0.00 0.06 85 1014.3
20260903102030 68 244 20.0 27.0 0.00 0.00 0.06 85 1014.3
20260903101029 68 225 19.0 27.0 0.00 0.00 0.06 86 1014.4
20260903100030 68 241 18.0 24.0 0.00 0.00 0.06 86 1014.4
20260903095030 68 236 17.0 23.0 0.00 0.00 0.06 87 1014.5
20260903094030 67 239 19.0 26.0 0.00 0.00 0.06 89 1014.3
20260903093030 67 247 19.0 24.0 0.00 0.00 0.06 90 1014.3
20260903092029 67 214 17.0 25.0 0.00 0.00 0.06 91 1014.2
20260903091030 67 216 15.0 24.0 0.00 0.00 0.06 92 1014.4
20260903090030 66 216 14.0 21.0 0.00 0.00 0.06 93 1014.4
20260903085029 66 219 13.0 23.0 0.00 0.00 0.06 93 1014.3
20260903084030 66 216 10.0 16.0 0.00 0.00 0.06 94 1014.1
20260903083030 66 210 12.0 21.0 0.00 0.00 0.06 94 1014.0
20260903082030 66 227 14.0 21.0 0.00 0.00 0.06 94 1014.1
20260903081030 66 221 14.0 21.0 0.00 0.00 0.06 94 1014.1
20260903080030 65 229 15.0 22.0 0.00 0.00 0.06 94 1014.1
20260903075030 65 228 15.0 23.0 0.00 0.00 0.06 94 1014.0
20260903074029 65 235 18.0 25.0 0.00 0.00 0.06 94 1013.8
20260903073030 65 235 17.0 28.0 0.00 0.00 0.06 94 1013.9
20260903072030 65 216 11.0 19.0 0.00 0.00 0.06 94 1014.1
20260903071030 65 198 9.0 16.0 0.00 0.00 0.04 94 1014.2
20260903070030 64 197 8.0 14.0 0.00 0.00 0.03 93 1014.1
20260903065030 64 199 6.0 14.0 0.00 0.00 0.03 93 1014.0
20260903064030 64 185 8.0 16.0 0.00 0.00 0.02 93 1014.0
20260903063030 64 198 10.0 17.0 0.00 0.00 0.02 93 1013.9
20260903062030 64 209 9.0 18.0 0.00 0.00 0.02 92 1014.0
20260903061030 64 194 7.0 16.0 0.00 0.00 0.02 92 1013.8
20260903060030 64 181 6.0 19.0 0.00 0.00 0.01 92 1013.9
20260903055030 64 205 8.0 13.0 0.00 0.00 0.01 91 1014.0
20260903054029 64 203 8.0 16.0 0.00 0.00 0.01 91 1014.2
20260903053033 64 191 8.0 15.0 0.00 0.00 0.01 91 1014.2
20260903052030 64 196 9.0 17.0 0.00 0.00 0.00 90 1014.2
20260903051030 64 208 9.0 16.0 0.00 0.00 0.00 90 1014.3
20260903050030 64 188 9.0 20.0 0.00 0.00 0.00 89 1014.0
20260903045030 64 180 9.0 17.0 0.00 0.00 0.00 89 1013.9
20260903044030 64 190 7.0 17.0 0.00 0.00 0.00 89 1014.1
20260903043030 64 202 8.0 16.0 0.00 0.00 0.00 88 1014.1
20260903042031 64 193 8.0 16.0 0.00 0.00 0.00 87 1014.2
20260903041029 64 204 9.0 18.0 0.00 0.00 0.00 87 1014.2
20260903040031 64 200 10.0 20.0 0.00 0.00 0.00 86 1014.3
20260903035030 64 196 8.0 16.0 0.00 0.00 0.00 85 1014.4